sat.trackr.live / text

‹ back to catalog

STARLINK-2514

NORAD 48331 · 2021-036BH

PAYLOAD ACTIVE UNKNOWN

§ Identity

Operator
Country
US
Launch date
2021-04-29
Launch site
AFETR
Launch vehicle
Mass (kg)
RCS (m²)

Purposes: comms

External: N2YO · Heavens-Above · Gunter

§ Orbital elements

Epoch: 2026-05-25T03:51:58.442976Z

Period
94.05 min
Inclination
53.1593°
Eccentricity
0.0001552
Mean motion
15.31150222 rev/d
Perigee alt
471.3 km
Apogee alt
473.4 km
Semi-major
6,850.5 km
B*
1.2442e-3
RAAN
105.7588°
Arg perigee
106.0931°
Mean anomaly
254.0241°
Rev number
27,975

§ Raw data

STARLINK-25141 48331U 21036BH  26145.16109309  .00037782  00000+0  12442-2 0  99992 48331  53.1593 105.7588 0001552 106.0931 254.0241 15.31150222279754

JSON: /api/v1/satellites/48331 · /tle

For live sub-satellite position, see the globe view (requires WebGL).

§ Visibility from observer

Set your observer location to see the next 7 days of passes ≥ 10°. The values pass through the URL so the page stays shareable.

No JS? Fill the form by hand. The geolocation button needs JavaScript.